• en Suisse
  • Liste des pays
  • À 7 jours
  • Température de l'eau
  • Carte satellitaire
  • Carte météo
  • Widgets météo
  • user-avatar
    Se connecter

    Météo par heure à Serhiivka

    Ce jour, 20 Juillet, Vendredi

    Heure Température Précipitation Vent Pression Humidité
    00:00 +24°C° 0 mm 1 m/s 744 mmHg 67%
    01:00 +23°C° 0 mm 1 m/s 744 mmHg 69%
    02:00 +23°C° 0 mm 1 m/s 744 mmHg 71%
    03:00 +23°C° 0 mm 1 m/s 744 mmHg 72%
    04:00 +23°C° 0 mm 1 m/s 744 mmHg 74%
    05:00 +22°C° 0 mm 1 m/s 744 mmHg 75%
    06:00 +24°C° 0 mm 1 m/s 744 mmHg 69%
    07:00 +26°C° 0 mm 2 m/s 744 mmHg 64%
    08:00 +27°C° 0 mm 2 m/s 744 mmHg 61%
    09:00 +28°C° 0,3 mm 2 m/s 744 mmHg 56%
    10:00 +29°C° 0,3 mm 3 m/s 744 mmHg 51%
    11:00 +31°C° 0,3 mm 3 m/s 744 mmHg 46%
    12:00 +31°C° 0 mm 3 m/s 744 mmHg 46%
    13:00 +31°C° 0 mm 3 m/s 744 mmHg 45%
    14:00 +31°C° 0 mm 3 m/s 744 mmHg 45%
    15:00 +31°C° 0 mm 3 m/s 744 mmHg 45%
    16:00 +31°C° 0 mm 3 m/s 744 mmHg 45%
    17:00 +31°C° 0 mm 3 m/s 744 mmHg 46%
    18:00 +29°C° 0 mm 3 m/s 745 mmHg 50%
    19:00 +28°C° 0 mm 3 m/s 745 mmHg 54%
    20:00 +27°C° 0 mm 2 m/s 745 mmHg 58%
    21:00 +26°C° 0 mm 2 m/s 745 mmHg 63%
    22:00 +25°C° 0 mm 2 m/s 745 mmHg 67%
    23:00 +24°C° 0 mm 2 m/s 745 mmHg 71%

    Demain, 21 Juillet, Samedi

    Heure Température Précipitation Vent Pression Humidité
    00:00 +23°C° 0 mm 2 m/s 745 mmHg 74%
    01:00 +23°C° 0 mm 2 m/s 745 mmHg 77%
    02:00 +21°C° 0 mm 2 m/s 745 mmHg 80%
    03:00 +21°C° 0 mm 2 m/s 746 mmHg 82%
    04:00 +21°C° 0 mm 2 m/s 746 mmHg 84%
    05:00 +21°C° 0 mm 2 m/s 746 mmHg 86%
    06:00 +22°C° 0 mm 3 m/s 746 mmHg 79%
    07:00 +25°C° 0 mm 3 m/s 746 mmHg 72%
    08:00 +26°C° 0 mm 3 m/s 746 mmHg 66%
    09:00 +27°C° 0 mm 3 m/s 746 mmHg 60%
    10:00 +29°C° 0 mm 3 m/s 746 mmHg 55%
    11:00 +30°C° 0 mm 4 m/s 746 mmHg 50%
    12:00 +30°C° 0 mm 4 m/s 746 mmHg 48%
    13:00 +32°C° 0 mm 4 m/s 746 mmHg 47%
    14:00 +32°C° 0 mm 4 m/s 746 mmHg 46%
    15:00 +32°C° 0,1 mm 4 m/s 746 mmHg 47%
    16:00 +32°C° 0,1 mm 4 m/s 746 mmHg 47%
    17:00 +32°C° 0,1 mm 4 m/s 746 mmHg 47%
    18:00 +30°C° 0,1 mm 3 m/s 746 mmHg 52%
    19:00 +28°C° 0,1 mm 3 m/s 746 mmHg 57%
    20:00 +27°C° 0,1 mm 3 m/s 746 mmHg 62%
    21:00 +26°C° 0 mm 3 m/s 746 mmHg 66%
    22:00 +25°C° 0 mm 2 m/s 746 mmHg 71%
    23:00 +24°C° 0 mm 2 m/s 747 mmHg 75%

    Après-demain, 22 Juillet, Dimanche

    Heure Température Précipitation Vent Pression Humidité
    00:00 +24°C° 0,1 mm 2 m/s 747 mmHg 79%
    01:00 +23°C° 0,1 mm 2 m/s 747 mmHg 82%
    02:00 +23°C° 0,1 mm 2 m/s 747 mmHg 85%
    03:00 +23°C° 0 mm 2 m/s 747 mmHg 85%
    04:00 +21°C° 0 mm 2 m/s 747 mmHg 86%
    05:00 +21°C° 0 mm 2 m/s 747 mmHg 87%
    06:00 +24°C° 0 mm 2 m/s 747 mmHg 80%
    07:00 +25°C° 0 mm 3 m/s 747 mmHg 72%
    08:00 +27°C° 0 mm 3 m/s 747 mmHg 65%
    09:00 +28°C° 0 mm 3 m/s 747 mmHg 58%
    10:00 +29°C° 0 mm 3 m/s 747 mmHg 52%
    11:00 +30°C° 0 mm 3 m/s 747 mmHg 46%
    12:00 +31°C° 0 mm 3 m/s 746 mmHg 44%
    13:00 +31°C° 0 mm 3 m/s 746 mmHg 41%
    14:00 +33°C° 0 mm 3 m/s 746 mmHg 39%
    15:00 +33°C° 0 mm 3 m/s 746 mmHg 40%
    16:00 +31°C° 0 mm 3 m/s 745 mmHg 41%
    17:00 +31°C° 0 mm 3 m/s 745 mmHg 43%
    18:00 +30°C° 0 mm 3 m/s 745 mmHg 47%
    19:00 +28°C° 0 mm 3 m/s 746 mmHg 51%
    20:00 +27°C° 0 mm 3 m/s 746 mmHg 56%
    21:00 +26°C° 0 mm 2 m/s 746 mmHg 59%
    22:00 +25°C° 0 mm 2 m/s 746 mmHg 63%
    23:00 +25°C° 0 mm 2 m/s 746 mmHg 66%

    23 Juillet, Lundi

    Heure Température Précipitation Vent Pression Humidité
    00:00 +24°C° 0 mm 2 m/s 746 mmHg 69%
    01:00 +23°C° 0 mm 2 m/s 746 mmHg 72%
    02:00 +23°C° 0 mm 1 m/s 746 mmHg 74%
    03:00 +23°C° 0 mm 1 m/s 746 mmHg 76%
    04:00 +22°C° 0 mm 1 m/s 746 mmHg 77%
    05:00 +21°C° 0 mm 2 m/s 746 mmHg 78%
    06:00 +24°C° 0 mm 2 m/s 746 mmHg 72%
    07:00 +25°C° 0 mm 2 m/s 746 mmHg 66%
    08:00 +27°C° 0 mm 3 m/s 746 mmHg 60%
    09:00 +28°C° 0 mm 3 m/s 746 mmHg 54%
    10:00 +29°C° 0 mm 3 m/s 746 mmHg 49%
    11:00 +31°C° 0 mm 3 m/s 746 mmHg 43%
    12:00 +31°C° 0 mm 3 m/s 745 mmHg 41%
    13:00 +33°C° 0 mm 3 m/s 745 mmHg 39%
    14:00 +33°C° 0 mm 3 m/s 745 mmHg 36%
    15:00 +33°C° 0 mm 3 m/s 745 mmHg 38%
    16:00 +31°C° 0 mm 3 m/s 745 mmHg 40%
    17:00 +31°C° 0 mm 2 m/s 745 mmHg 42%
    18:00 +30°C° 0 mm 2 m/s 745 mmHg 45%
    19:00 +28°C° 0 mm 1 m/s 745 mmHg 49%
    20:00 +27°C° 0 mm 1 m/s 746 mmHg 53%
    21:00 +26°C° 0,2 mm 1 m/s 746 mmHg 56%
    22:00 +26°C° 0,2 mm 1 m/s 746 mmHg 59%
    23:00 +25°C° 0,2 mm 1 m/s 746 mmHg 63%

    24 Juillet, Mardi

    Heure Température Précipitation Vent Pression Humidité
    00:00 +24°C° 0,1 mm 1 m/s 746 mmHg 65%
    01:00 +24°C° 0,1 mm 1 m/s 745 mmHg 67%
    02:00 +23°C° 0,1 mm 1 m/s 745 mmHg 69%
    03:00 +23°C° 0 mm 1 m/s 745 mmHg 70%
    04:00 +23°C° 0 mm 1 m/s 746 mmHg 71%
    05:00 +23°C° 0 mm 1 m/s 746 mmHg 72%
    06:00 +25°C° 0,1 mm 1 m/s 746 mmHg 67%
    07:00 +26°C° 0,1 mm 2 m/s 746 mmHg 62%
    08:00 +28°C° 0,1 mm 2 m/s 746 mmHg 57%
    09:00 +29°C° 0,1 mm 2 m/s 746 mmHg 50%
    10:00 +31°C° 0,1 mm 3 m/s 746 mmHg 44%
    11:00 +33°C° 0,1 mm 3 m/s 746 mmHg 37%
    12:00 +33°C° 0 mm 3 m/s 746 mmHg 36%
    13:00 +33°C° 0 mm 3 m/s 746 mmHg 36%
    14:00 +34°C° 0 mm 3 m/s 745 mmHg 35%
    15:00 +32°C° 0 mm 2 m/s 745 mmHg 36%
    16:00 +32°C° 0 mm 2 m/s 745 mmHg 37%
    17:00 +32°C° 0 mm 2 m/s 745 mmHg 38%
    18:00 +31°C° 0 mm 2 m/s 746 mmHg 41%
    19:00 +30°C° 0 mm 2 m/s 746 mmHg 43%
    20:00 +29°C° 0 mm 2 m/s 746 mmHg 46%
    21:00 +28°C° 0,1 mm 2 m/s 746 mmHg 50%
    22:00 +27°C° 0,1 mm 2 m/s 746 mmHg 53%
    23:00 +26°C° 0,1 mm 2 m/s 746 mmHg 57%

    25 Juillet, Mercredi

    Heure Température Précipitation Vent Pression Humidité
    00:00 +25°C° 0,1 mm 2 m/s 746 mmHg 60%
    01:00 +25°C° 0,1 mm 2 m/s 746 mmHg 64%
    02:00 +24°C° 0,1 mm 2 m/s 746 mmHg 68%
    03:00 +24°C° 0,1 mm 1 m/s 746 mmHg 69%
    04:00 +24°C° 0,1 mm 1 m/s 746 mmHg 71%
    05:00 +23°C° 0,1 mm 1 m/s 747 mmHg 72%
    06:00 +25°C° 0 mm 1 m/s 747 mmHg 67%
    07:00 +27°C° 0 mm 2 m/s 747 mmHg 62%
    08:00 +28°C° 0 mm 2 m/s 747 mmHg 56%
    09:00 +30°C° 0 mm 2 m/s 747 mmHg 51%
    10:00 +31°C° 0 mm 2 m/s 747 mmHg 46%
    11:00 +33°C° 0 mm 3 m/s 747 mmHg 40%
    12:00 +34°C° 0 mm 2 m/s 747 mmHg 38%
    13:00 +34°C° 0 mm 2 m/s 746 mmHg 36%
    14:00 +35°C° 0 mm 2 m/s 746 mmHg 34%
    15:00 +35°C° 0 mm 2 m/s 746 mmHg 34%
    16:00 +35°C° 0 mm 2 m/s 746 mmHg 34%
    17:00 +35°C° 0 mm 2 m/s 746 mmHg 34%
    18:00 +34°C° 0 mm 2 m/s 746 mmHg 37%
    19:00 +31°C° 0 mm 2 m/s 747 mmHg 40%
    20:00 +30°C° 0 mm 2 m/s 747 mmHg 43%
    21:00 +29°C° 0,1 mm 2 m/s 747 mmHg 46%
    22:00 +28°C° 0,1 mm 2 m/s 747 mmHg 50%
    23:00 +27°C° 0,1 mm 2 m/s 747 mmHg 53%
    Voir plus